When you browse on this site, cookies collect data to enhance your experience and personalize the content and advertising you see.
Visit our Privacy Policy to learn more. By continuing to use the site, you agree to this use of cookies and data.

Hourly Weather Akureyri

Today, 12 July, Sunday

Time Temperature Precipitation Wind Pressure Humidity
00:00 +6°C° 0 mm 2 mps 719 mmHg 87%
01:00 +7°C° 0 mm 1 mps 720 mmHg 88%
02:00 +7°C° 0 mm 1 mps 720 mmHg 87%
03:00 +7°C° 0 mm 1 mps 720 mmHg 86%
04:00 +7°C° 0 mm 1 mps 720 mmHg 84%
05:00 +8°C° 0 mm 1 mps 720 mmHg 79%
06:00 +9°C° 0 mm 2 mps 720 mmHg 73%
07:00 +10°C° 0 mm 2 mps 721 mmHg 67%
08:00 +12°C° 0 mm 2 mps 721 mmHg 59%
09:00 +13°C° 0 mm 2 mps 721 mmHg 51%
10:00 +14°C° 0 mm 2 mps 721 mmHg 44%
11:00 +15°C° 0 mm 2 mps 721 mmHg 42%
12:00 +15°C° 0 mm 2 mps 721 mmHg 41%
13:00 +16°C° 0 mm 2 mps 721 mmHg 40%
14:00 +16°C° 0 mm 2 mps 721 mmHg 41%
15:00 +16°C° 0 mm 2 mps 721 mmHg 41%
16:00 +15°C° 0 mm 2 mps 721 mmHg 42%
17:00 +15°C° 0 mm 2 mps 721 mmHg 46%
18:00 +15°C° 0 mm 1 mps 721 mmHg 50%
19:00 +14°C° 0 mm 1 mps 721 mmHg 54%
20:00 +13°C° 0 mm 1 mps 721 mmHg 59%
21:00 +11°C° 0 mm 1 mps 722 mmHg 63%
22:00 +9°C° 0 mm 2 mps 722 mmHg 68%
23:00 +9°C° 0 mm 1 mps 722 mmHg 71%

Tomorrow, 13 July, Monday

Time Temperature Precipitation Wind Pressure Humidity
00:00 +8°C° 0 mm 1 mps 722 mmHg 73%
01:00 +8°C° 0 mm 1 mps 722 mmHg 76%
02:00 +8°C° 0 mm 1 mps 722 mmHg 76%
03:00 +8°C° 0 mm 1 mps 722 mmHg 77%
04:00 +9°C° 0 mm 1 mps 722 mmHg 78%
05:00 +10°C° 0 mm 1 mps 722 mmHg 75%
06:00 +10°C° 0 mm 2 mps 723 mmHg 73%
07:00 +12°C° 0 mm 2 mps 723 mmHg 70%
08:00 +12°C° 0.4 mm 2 mps 723 mmHg 72%
09:00 +11°C° 0.4 mm 3 mps 723 mmHg 74%
10:00 +11°C° 0.4 mm 3 mps 722 mmHg 75%
11:00 +11°C° 0.2 mm 3 mps 722 mmHg 75%
12:00 +11°C° 0.2 mm 3 mps 722 mmHg 75%
13:00 +11°C° 0.2 mm 4 mps 722 mmHg 74%
14:00 +11°C° 0.2 mm 3 mps 722 mmHg 74%
15:00 +12°C° 0.2 mm 3 mps 722 mmHg 74%
16:00 +12°C° 0.2 mm 3 mps 722 mmHg 74%
17:00 +12°C° 0.3 mm 3 mps 722 mmHg 77%
18:00 +11°C° 0.3 mm 3 mps 722 mmHg 81%
19:00 +11°C° 0.3 mm 3 mps 722 mmHg 84%
20:00 +10°C° 0.1 mm 2 mps 722 mmHg 88%
21:00 +9°C° 0.1 mm 2 mps 722 mmHg 92%
22:00 +8°C° 0.1 mm 2 mps 722 mmHg 96%
23:00 +7°C° 0 mm 2 mps 722 mmHg 96%

Day after tomorrow, 14 July, Tuesday

Time Temperature Precipitation Wind Pressure Humidity
00:00 +6°C° 0 mm 2 mps 722 mmHg 96%
01:00 +6°C° 0 mm 2 mps 722 mmHg 96%
02:00 +6°C° 0 mm 2 mps 722 mmHg 96%
03:00 +7°C° 0 mm 2 mps 722 mmHg 95%
04:00 +8°C° 0 mm 1 mps 722 mmHg 95%
05:00 +9°C° 0.1 mm 1 mps 722 mmHg 92%
06:00 +10°C° 0.1 mm 1 mps 722 mmHg 89%
07:00 +12°C° 0.1 mm 1 mps 722 mmHg 86%
08:00 +12°C° 0.3 mm 1 mps 722 mmHg 87%
09:00 +12°C° 0.3 mm 1 mps 722 mmHg 89%
10:00 +12°C° 0.3 mm 1 mps 722 mmHg 91%
11:00 +12°C° 0.5 mm 1 mps 722 mmHg 89%
12:00 +12°C° 0.5 mm 1 mps 722 mmHg 88%
13:00 +13°C° 0.5 mm 2 mps 722 mmHg 87%
14:00 +13°C° 0.2 mm 2 mps 722 mmHg 84%
15:00 +14°C° 0.2 mm 2 mps 722 mmHg 80%
16:00 +14°C° 0.2 mm 2 mps 722 mmHg 77%
17:00 +14°C° 0.5 mm 2 mps 722 mmHg 81%
18:00 +14°C° 0.5 mm 2 mps 722 mmHg 84%
19:00 +13°C° 0.5 mm 2 mps 722 mmHg 88%
20:00 +12°C° 0.2 mm 2 mps 722 mmHg 91%
21:00 +11°C° 0.2 mm 1 mps 722 mmHg 94%
22:00 +10°C° 0.2 mm 1 mps 722 mmHg 97%
23:00 +9°C° 0 mm 1 mps 722 mmHg 97%

15 July, Wednesday

Time Temperature Precipitation Wind Pressure Humidity
00:00 +9°C° 0 mm 1 mps 722 mmHg 98%
01:00 +8°C° 0 mm 1 mps 723 mmHg 98%
02:00 +8°C° 0 mm 1 mps 723 mmHg 98%
03:00 +9°C° 0 mm 1 mps 723 mmHg 98%
04:00 +8°C° 0 mm 0 mps 723 mmHg 97%
05:00 +10°C° 0 mm 1 mps 723 mmHg 96%
06:00 +11°C° 0 mm 1 mps 723 mmHg 94%
07:00 +11°C° 0 mm 1 mps 723 mmHg 92%
08:00 +12°C° 0.1 mm 1 mps 723 mmHg 88%
09:00 +13°C° 0.1 mm 1 mps 723 mmHg 83%
10:00 +14°C° 0.1 mm 1 mps 723 mmHg 79%
11:00 +15°C° 0.3 mm 1 mps 723 mmHg 74%
12:00 +16°C° 0.3 mm 1 mps 723 mmHg 70%
13:00 +18°C° 0.3 mm 1 mps 723 mmHg 66%
14:00 +18°C° 0.3 mm 1 mps 723 mmHg 65%
15:00 +18°C° 0.3 mm 1 mps 723 mmHg 64%
16:00 +18°C° 0.3 mm 1 mps 723 mmHg 63%
17:00 +16°C° 0.3 mm 1 mps 723 mmHg 69%
18:00 +16°C° 0.3 mm 1 mps 723 mmHg 76%
19:00 +15°C° 0.3 mm 1 mps 723 mmHg 82%
20:00 +14°C° 0 mm 1 mps 723 mmHg 85%
21:00 +13°C° 0 mm 1 mps 723 mmHg 87%
22:00 +11°C° 0 mm 1 mps 723 mmHg 90%
23:00 +11°C° 0 mm 1 mps 723 mmHg 91%

16 July, Thursday

Time Temperature Precipitation Wind Pressure Humidity
00:00 +10°C° 0 mm 1 mps 723 mmHg 92%
01:00 +9°C° 0 mm 0 mps 723 mmHg 93%
02:00 +9°C° 0 mm 0 mps 723 mmHg 92%
03:00 +9°C° 0 mm 0 mps 723 mmHg 92%
04:00 +10°C° 0 mm 0 mps 723 mmHg 91%
05:00 +11°C° 0 mm 0 mps 724 mmHg 86%
06:00 +12°C° 0 mm 0 mps 724 mmHg 81%
07:00 +14°C° 0 mm 0 mps 724 mmHg 77%
08:00 +16°C° 0.6 mm 1 mps 724 mmHg 74%
09:00 +18°C° 0.6 mm 1 mps 724 mmHg 71%
10:00 +18°C° 0.6 mm 1 mps 724 mmHg 69%
11:00 +19°C° 0.8 mm 1 mps 723 mmHg 68%
12:00 +19°C° 0.8 mm 1 mps 723 mmHg 68%
13:00 +20°C° 0.8 mm 1 mps 723 mmHg 68%
14:00 +20°C° 0.8 mm 1 mps 723 mmHg 68%
15:00 +20°C° 0.8 mm 1 mps 723 mmHg 68%
16:00 +20°C° 0.8 mm 1 mps 723 mmHg 68%
17:00 +19°C° 0.3 mm 1 mps 723 mmHg 71%
18:00 +19°C° 0.3 mm 1 mps 722 mmHg 74%
19:00 +19°C° 0.3 mm 1 mps 722 mmHg 77%
20:00 +16°C° 0 mm 1 mps 722 mmHg 81%
21:00 +14°C° 0 mm 1 mps 722 mmHg 86%
22:00 +12°C° 0 mm 1 mps 722 mmHg 90%
23:00 +12°C° 0 mm 1 mps 722 mmHg 91%

17 July, Friday

Time Temperature Precipitation Wind Pressure Humidity
00:00 +11°C° 0 mm 1 mps 722 mmHg 93%
01:00 +11°C° 0 mm 1 mps 721 mmHg 94%
02:00 +11°C° 0 mm 1 mps 722 mmHg 93%
03:00 +11°C° 0 mm 1 mps 722 mmHg 93%
04:00 +11°C° 0 mm 1 mps 722 mmHg 93%
05:00 +13°C° 0 mm 1 mps 722 mmHg 88%
06:00 +14°C° 0 mm 1 mps 722 mmHg 83%
07:00 +15°C° 0 mm 1 mps 722 mmHg 78%
08:00 +18°C° 0 mm 1 mps 721 mmHg 71%
09:00 +19°C° 0 mm 1 mps 721 mmHg 63%
10:00 +20°C° 0 mm 2 mps 721 mmHg 56%
11:00 +20°C° 0.1 mm 2 mps 721 mmHg 52%
12:00 +21°C° 0.1 mm 2 mps 721 mmHg 49%
13:00 +21°C° 0.1 mm 2 mps 721 mmHg 46%
14:00 +21°C° 0 mm 2 mps 721 mmHg 46%
15:00 +21°C° 0 mm 2 mps 721 mmHg 46%
16:00 +21°C° 0 mm 2 mps 721 mmHg 46%
17:00 +21°C° 0 mm 1 mps 720 mmHg 51%
18:00 +21°C° 0 mm 1 mps 720 mmHg 57%
19:00 +20°C° 0 mm 1 mps 720 mmHg 62%
20:00 +18°C° 0 mm 1 mps 720 mmHg 66%
21:00 +16°C° 0 mm 1 mps 720 mmHg 70%
22:00 +14°C° 0 mm 1 mps 720 mmHg 74%
23:00 +14°C° 0 mm 1 mps 720 mmHg 75%
Show more